Regional Weather Roundup
Issued by NWS

Home | Current Version | Previous Version | Text Only | Print | Product List | Glossary On
Versions: 1 2 3 4 5 6 7 8 9 10 11 12 13 14 15 16 17 18 19 20 21 22 23 24 25 26 27 28 29 30 31 32 33 34 35 36 37 38 39 40 41 42 43 44 45 46 47 48 49 50
000
ASUS43 KDTX 261110
RWRMI
MICHIGAN HOURLY REGIONAL WEATHER ROUNDUP
NATIONAL WEATHER SERVICE DETROIT/PONTIAC MI
700 AM EDT TUE JUL 26 2016

NOTE: "FAIR" INDICATES FEW OR NO CLOUDS BELOW 12,000 FEET WITH NO
SIGNIFICANT WEATHER AND/OR OBSTRUCTION TO VISIBILITY.

MIZ047>049-052>055-059>063-066>070-074>076-081>083-261200-
SOUTHEAST LOWER MICHIGAN

CITY           SKY/WX    TMP DP  RH WIND       PRES   REMARKS
ADRIAN         CLOUDY    64  63  96 CALM      30.07R
ALMA           CLEAR     60  60 100 CALM      30.07R
ANN ARBOR      CLEAR     60  59  96 NW3       30.06R
BAD AXE        CLEAR     58  57  97 CALM      30.05R
CARO           CLEAR     58  57  98 CALM      30.05R
DETROIT CITY   CLEAR     67  64  90 CALM      30.05R
DETROIT        PTCLDY    67  61  81 CALM      30.06R
FLINT          CLEAR     62  58  86 CALM      30.06R
GROSSE ILE     CLEAR     66  62  87 CALM      30.04R
HILLSDALE      PTCLDY    60  59  97 CALM      30.08R
HOWELL         CLEAR     63  62  96 NW3       30.07R

CITY           SKY/WX    TMP DP  RH WIND       PRES   REMARKS
JACKSON        CLEAR     63  63 100 CALM      30.08R
LAMBERTVILLE   CLOUDY    64  62  93 CALM      30.07R
LANSING        CLEAR     63  61  93 CALM      30.08R
LAPEER         FAIR      57  56  96 S5        30.07R
MASON          FOG       59  58  96 CALM      30.08R VSB 1/2
MONROE         CLEAR     64  62  92 CALM      30.05R
MT. CLEMENS    CLEAR     64  63  95 N5        30.03R
PONTIAC        PTCLDY    64  61  90 CALM      30.06R
PORT HURON     FOG       59  59 100 CALM      30.05R VSB 1/4
TRI CITIES     CLEAR     62  61  96 W6        30.06R
MIDLAND        FAIR      59  59 100 CALM      30.06R
TROY           CLEAR     68  62  82 CALM      30.07S
SAGINAW HB     CLEAR     61  59  94 CALM      30.05R
$$
MIZ043>046-050>051-056>058-064>065-071>073-077>080-261200-
SOUTHWEST LOWER MICHIGAN

CITY           SKY/WX    TMP DP  RH WIND       PRES   REMARKS
BATTLE CREEK   CLEAR     60  60 100 CALM      30.08R
BENTON HARBOR  CLEAR     63  60  90 CALM      30.07R
BIG RAPIDS     CLEAR     60  60 100 CALM      30.06S
COLDWATER      CLOUDY    62  62 100 CALM      30.08S FOG
FREMONT        FOG       63  63 100 CALM      30.06R VSB<1/4
HOLLAND        CLEAR     64  62  93 CALM      30.07R
GRAND RAPIDS   PTCLDY    64  62  93 CALM      30.07R FOG
IONIA          FAIR      63  61  91 CALM      30.07R
KALAMAZOO      CLEAR     62  59  90 CALM      30.09R
LUDINGTON      FOG       60  60 100 CALM      30.04R VSB 1/2
MARSHALL       PTCLDY    61  60  98 CALM      30.08R FOG
MOUNT PLEASANT FOG       61  61  99 CALM      30.06R VSB 1/2
MUSKEGON       PTCLDY    67  64  90 CALM      30.06R
SOUTH HAVEN    CLEAR     61  61 100 CALM      30.07R
$$
MIZ016>042-261200-
NORTHERN LOWER MICHIGAN

CITY           SKY/WX    TMP DP  RH WIND       PRES   REMARKS
ALPENA         CLEAR     58  54  86 CALM      30.02R
BEAVER ISLAND  CLEAR     63  60  93 CALM      30.01R
BELLAIRE       CLEAR     56  55  96 CALM      30.03S
CADILLAC       PTCLDY    56  53  89 CALM      30.06R
CHARLEVOIX     CLEAR     65  62  91 E3        30.04S
FRANKFORT      FOG       59  57  94 CALM      30.02S VSB 1/4
GAYLORD        CLEAR     56  52  86 W3        30.05R
GRAYLING       CLEAR     52  51  97 CALM      30.05S
HARBOR SPRINGS CLEAR     60  58  95 CALM      30.02R
HOUGHTON LAKE  CLEAR     54  53  97 E3        30.06R
MANISTEE       FOG       58  58 100 E3        30.03R VSB<1/4
OSCODA         CLEAR     61  55  82 CALM      30.02R
ROGERS CITY    CLEAR     63  55  74 SW7       30.02R
TRAVERSE CITY  CLEAR     62  59  90 CALM      30.01S
$$
MIZ007>008-015-261200-
EASTERN UPPER MICHIGAN

CITY           SKY/WX    TMP DP  RH WIND       PRES   REMARKS
KINROSS        CLEAR     60  58  92 W3        30.00S
MACKINAC ISLAN CLEAR     67  61  82 W8        30.00S
NEWBERRY       CLEAR     61  59  94 SW6       29.99S
S. S. MARIE    CLEAR     58  56  93 CALM      29.99R
$$
MIZ004>006-011>014-085-261200-
CENTRAL UPPER MICHIGAN

CITY           SKY/WX    TMP DP  RH WIND       PRES   REMARKS
MANISTIQUE     CLEAR     63  61  94 W3        30.00R
ESCANABA       CLEAR     61  55  82 W6        29.99S
MENOMINEE      CLEAR    N/A N/A N/A CALM      30.03S
SAWYER-GWINN   CLEAR     57  55  94 CALM      30.02R
$$
MIZ001>003-009>011-084-261200-
WESTERN UPPER MICHIGAN

CITY           SKY/WX    TMP DP  RH WIND       PRES   REMARKS
IRON MOUNTAIN  CLEAR     59  55  87 N3        30.02R
HOUGHTON       CLEAR     67  60  78 W10       29.98R
COPPER HARBOR    N/A     68  61  78 VRB3      29.94S
IRONWOOD       PTCLDY    63  61  94 CALM      30.02R
$$

ABBREVIATIONS USED IN REMARKS
   TC - TEMPERATURE IN CELSIUS
  WCI - WIND CHILL INDEX
   HX - HEAT INDEX
  VSB - VISIBILITY




USA.gov is the U.S. government's official web portal to all federal, state and local government web resources and services.